Abilene, TX

4:37 PM CDT on April 20, 2018 (GMT -0500)
Abilene Regional

Weather History for KABI - September, 2014

Change the Weather History Date:

Thursday, September 25, 2014

  Actual Average Record
Temperature  
Mean Temperature 73 °F 72 °F  
Max Temperature 86 °F 84 °F 104 °F (1977)
Min Temperature 60 °F 61 °F 40 °F (1975)
Degree Days  
Heating Degree Days 0 1  
Month to date heating degree days 5 6  
Since 1 July heating degree days 5 6  
Cooling Degree Days 8 8  
Month to date cooling degree days 349 290  
Year to date cooling degree days 2533 2235  
Growing Degree Days 23 (Base 50)    
Moisture  
Dew Point 49 °F    
Average Humidity 49    
Maximum Humidity 72    
Minimum Humidity 25    
Precipitation  
Precipitation 0.00 in 0.07 in 2.30 in (1893)
Month to date precipitation 0.75 1.88  
Year to date precipitation 11.25 18.84  
Sea Level Pressure  
Sea Level Pressure 30.11 in    
Wind  
Wind Speed 7 mph (SSE)    
Max Wind Speed 14 mph    
Max Gust Speed 27 mph    
Visibility 10 miles    
Events      
T = Trace of Precipitation, MM = Missing Value Source: NWS Daily Summary

Daily Weather History Graph

Daily Weather History Graph

Search for Another Location

Airport or City:

Astronomy

Sep. 25, 2014 Rise Set
Actual Time 7:28 AM CDT 7:31 PM CDT
Civil Twilight 7:04 AM CDT 7:55 PM CDT
Nautical Twilight 6:35 AM CDT 8:24 PM CDT
Astronomical Twilight 6:07 AM CDT 8:52 PM CDT
Moon 8:42 AM CDT (9/25) 8:23 PM CDT (9/25)
Length of Visible Light 12h 51m
Length of Day
12h 02m
New Moon, 2% of the Moon is Illuminated
Sep 25
New Moon
Oct 1
First Quarter
Oct 8
Full
Oct 15
Last Quarter
Oct 23
New

Hourly Weather History & Observations

Time (CDT) Temp. Dew Point Humidity Pressure Visibility Wind Dir Wind Speed Gust Speed Precip Events Conditions
12:52 AM 63.0 °F 48.0 °F 58% 30.12 in 10.0 mi SSE 5.8 mph - N/A   Clear
1:52 AM 62.1 °F 48.9 °F 62% 30.11 in 10.0 mi SSE 6.9 mph - N/A   Clear
2:52 AM 61.0 °F 48.9 °F 64% 30.12 in 10.0 mi SSE 6.9 mph - N/A   Clear
3:52 AM 61.0 °F 50.0 °F 67% 30.12 in 10.0 mi SSW 3.5 mph - N/A   Clear
4:52 AM 61.0 °F 50.0 °F 67% 30.12 in 10.0 mi SSE 5.8 mph - N/A   Clear
5:52 AM 62.1 °F 50.0 °F 65% 30.12 in 10.0 mi SE 4.6 mph - N/A   Clear
6:52 AM 61.0 °F 51.1 °F 70% 30.13 in 10.0 mi South 5.8 mph - N/A   Clear
7:52 AM 63.0 °F 51.1 °F 65% 30.13 in 10.0 mi SE 5.8 mph - N/A   Clear
8:52 AM 66.9 °F 53.1 °F 61% 30.15 in 10.0 mi SE 5.8 mph - N/A   Clear
9:52 AM 73.9 °F 52.0 °F 46% 30.16 in 10.0 mi South 9.2 mph - N/A   Clear
10:52 AM 73.9 °F 52.0 °F 46% 30.17 in 10.0 mi South 6.9 mph - N/A   Clear
11:52 AM 77.0 °F 50.0 °F 39% 30.16 in 10.0 mi SW 5.8 mph - N/A   Clear
12:52 PM 78.1 °F 50.0 °F 37% 30.15 in 10.0 mi South 6.9 mph - N/A   Clear
1:52 PM 81.0 °F 48.9 °F 33% 30.12 in 10.0 mi Variable 4.6 mph - N/A   Clear
2:52 PM 84.0 °F 46.9 °F 27% 30.10 in 10.0 mi ENE 8.1 mph - N/A   Clear
3:52 PM 82.0 °F 46.9 °F 29% 30.08 in 10.0 mi South 4.6 mph - N/A   Clear
4:52 PM 84.9 °F 46.9 °F 27% 30.06 in 10.0 mi North - - N/A   Clear
5:52 PM 84.0 °F 45.0 °F 25% 30.06 in 10.0 mi SSE 9.2 mph - N/A   Clear
6:52 PM 82.0 °F 44.1 °F 26% 30.05 in 10.0 mi SSE 8.1 mph - N/A   Clear
7:52 PM 77.0 °F 45.0 °F 32% 30.06 in 10.0 mi ESE 6.9 mph - N/A   Clear
8:52 PM 75.0 °F 44.1 °F 33% 30.07 in 10.0 mi SE 9.2 mph - N/A   Clear
9:52 PM 71.1 °F 46.0 °F 41% 30.09 in 10.0 mi ESE 6.9 mph - N/A   Clear
10:52 PM 68.0 °F 48.0 °F 49% 30.09 in 10.0 mi SE 5.8 mph - N/A   Clear
11:52 PM 66.9 °F 50.0 °F 54% 30.08 in 10.0 mi ESE 5.8 mph - N/A   Clear